| time (UTC) | temp F | wind direction | speed MPH | gust MPH | rain 1hr in | rain 24hr in | rain mn in | humidity % | barometer mb |
| 20260507014703 | 60 | 177 | 0.0 | 1.0 | 0.00 | 0.16 | 0.16 | 96 | 1004.7 |
| 20260507014204 | 60 | 177 | 0.0 | 1.0 | 0.00 | 0.16 | 0.16 | 96 | 1004.7 |
| 20260507013203 | 60 | 177 | 1.0 | 3.0 | 0.00 | 0.16 | 0.16 | 96 | 1004.7 |
| 20260507012704 | 60 | 187 | 0.0 | 3.0 | 0.00 | 0.16 | 0.16 | 96 | 1004.7 |
| 20260507010704 | 60 | 190 | 0.0 | 2.0 | 0.00 | 0.16 | 0.16 | 96 | 1004.8 |
| 20260507010203 | 60 | 189 | 2.0 | 6.0 | 0.00 | 0.16 | 0.16 | 96 | 1004.9 |
| 20260507005204 | 60 | 202 | 0.0 | 2.0 | 0.00 | 0.16 | 0.16 | 96 | 1004.8 |
| 20260507003205 | 60 | 188 | 1.0 | 3.0 | 0.00 | 0.16 | 0.16 | 96 | 1004.6 |
| 20260507001205 | 60 | 173 | 0.0 | 3.0 | 0.01 | 0.16 | 0.16 | 96 | 1004.6 |
| 20260506235705 | 60 | 204 | 0.0 | 1.0 | 0.04 | 0.16 | 0.16 | 96 | 1004.5 |
| 20260506235204 | 60 | 204 | 1.0 | 3.0 | 0.04 | 0.16 | 0.16 | 95 | 1004.5 |
| 20260506234705 | 60 | 188 | 0.0 | 2.0 | 0.05 | 0.16 | 0.16 | 95 | 1004.4 |
| 20260506233704 | 60 | 188 | 0.0 | 2.0 | 0.05 | 0.16 | 0.16 | 95 | 1004.4 |
| 20260506232706 | 60 | 189 | 1.0 | 3.0 | 0.06 | 0.16 | 0.16 | 95 | 1004.4 |
| 20260506225704 | 60 | 192 | 1.0 | 3.0 | 0.02 | 0.12 | 0.12 | 95 | 1004.7 |
| 20260506224704 | 60 | 174 | 1.0 | 3.0 | 0.02 | 0.11 | 0.11 | 95 | 1004.8 |
| 20260506224204 | 60 | 170 | 1.0 | 3.0 | 0.02 | 0.11 | 0.11 | 95 | 1004.8 |
| 20260506222704 | 61 | 164 | 1.0 | 2.0 | 0.02 | 0.10 | 0.10 | 94 | 1004.8 |
| 20260506221204 | 61 | 166 | 1.0 | 5.0 | 0.02 | 0.10 | 0.10 | 94 | 1004.8 |
| 20260506220704 | 61 | 186 | 1.0 | 3.0 | 0.02 | 0.10 | 0.10 | 94 | 1004.8 |
| 20260506215205 | 61 | 199 | 2.0 | 5.0 | 0.03 | 0.10 | 0.10 | 94 | 1004.9 |
| 20260506212704 | 61 | 168 | 1.0 | 3.0 | 0.03 | 0.08 | 0.08 | 93 | 1004.9 |
| 20260506212205 | 61 | 200 | 2.0 | 6.0 | 0.03 | 0.08 | 0.08 | 93 | 1005.0 |
| 20260506211205 | 61 | 176 | 0.0 | 5.0 | 0.04 | 0.08 | 0.08 | 93 | 1005.2 |
| 20260506205704 | 62 | 176 | 1.0 | 3.0 | 0.03 | 0.07 | 0.07 | 93 | 1005.3 |
| 20260506205205 | 62 | 181 | 1.0 | 3.0 | 0.03 | 0.07 | 0.07 | 92 | 1005.3 |
| 20260506204204 | 63 | 198 | 1.0 | 3.0 | 0.02 | 0.06 | 0.06 | 93 | 1005.5 |
| 20260506203705 | 63 | 197 | 0.0 | 2.0 | 0.02 | 0.06 | 0.06 | 92 | 1005.5 |
| 20260506201704 | 63 | 173 | 1.0 | 3.0 | 0.02 | 0.05 | 0.05 | 92 | 1005.6 |
| 20260506201204 | 63 | 186 | 1.0 | 2.0 | 0.01 | 0.04 | 0.04 | 91 | 1005.5 |
| 20260506200204 | 63 | 190 | 1.0 | 6.0 | 0.02 | 0.04 | 0.04 | 91 | 1005.5 |
| 20260506195705 | 63 | 200 | 0.0 | 2.0 | 0.02 | 0.04 | 0.04 | 91 | 1005.5 |
| 20260506195205 | 63 | 183 | 0.0 | 2.0 | 0.02 | 0.04 | 0.04 | 91 | 1005.5 |
| 20260506194704 | 64 | 186 | 1.0 | 3.0 | 0.03 | 0.04 | 0.04 | 90 | 1005.6 |
| 20260506192705 | 65 | 184 | 1.0 | 2.0 | 0.04 | 0.04 | 0.04 | 90 | 1005.5 |
| 20260506191704 | 65 | 184 | 2.0 | 5.0 | 0.03 | 0.03 | 0.03 | 89 | 1005.4 |
| 20260506190706 | 66 | 238 | 0.0 | 0.0 | 0.03 | 0.03 | 0.03 | 88 | 1005.5 |
| 20260506185705 | 66 | 238 | 0.0 | 1.0 | 0.02 | 0.02 | 0.02 | 86 | 1005.7 |
| 20260506183705 | 68 | 238 | 0.0 | 1.0 | 0.01 | 0.01 | 0.01 | 79 | 1005.8 |
| 20260506181704 | 70 | 233 | 2.0 | 5.0 | 0.00 | 0.00 | 0.00 | 70 | 1005.9 |
| 20260506173204 | 73 | 190 | 3.0 | 12.0 | 0.00 | 0.00 | 0.00 | 60 | 1005.7 |
| 20260506171704 | 74 | 177 | 3.0 | 13.0 | 0.00 | 0.00 | 0.00 | 61 | 1005.7 |
| 20260506171205 | 74 | 218 | 3.0 | 10.0 | 0.00 | 0.00 | 0.00 | 60 | 1005.7 |
| 20260506170705 | 74 | 158 | 2.0 | 3.0 | 0.00 | 0.00 | 0.00 | 61 | 1005.9 |
| 20260506170204 | 74 | 184 | 2.0 | 9.0 | 0.00 | 0.00 | 0.00 | 62 | 1005.9 |
| 20260506165704 | 73 | 166 | 2.0 | 6.0 | 0.00 | 0.00 | 0.00 | 63 | 1006.0 |
| 20260506165205 | 73 | 231 | 2.0 | 6.0 | 0.00 | 0.00 | 0.00 | 63 | 1006.1 |
| 20260506164705 | 73 | 209 | 2.0 | 7.0 | 0.00 | 0.00 | 0.00 | 62 | 1006.2 |
| 20260506163704 | 72 | 172 | 3.0 | 8.0 | 0.00 | 0.00 | 0.00 | 63 | 1006.3 |
| 20260506163204 | 72 | 183 | 2.0 | 5.0 | 0.00 | 0.00 | 0.00 | 64 | 1006.4 |
| 20260506161704 | 72 | 131 | 2.0 | 3.0 | 0.00 | 0.00 | 0.00 | 65 | 1006.6 |
| 20260506161205 | 72 | 168 | 2.0 | 3.0 | 0.00 | 0.00 | 0.00 | 65 | 1006.6 |
| 20260506160704 | 72 | 169 | 2.0 | 8.0 | 0.00 | 0.00 | 0.00 | 66 | 1006.8 |
| 20260506154704 | 71 | 198 | 2.0 | 6.0 | 0.00 | 0.00 | 0.00 | 67 | 1007.3 |
| 20260506154205 | 71 | 180 | 2.0 | 3.0 | 0.00 | 0.00 | 0.00 | 68 | 1007.4 |
| 20260506153704 | 71 | 196 | 2.0 | 6.0 | 0.00 | 0.00 | 0.00 | 67 | 1007.4 |
| 20260506153204 | 71 | 227 | 3.0 | 9.0 | 0.00 | 0.00 | 0.00 | 66 | 1007.6 |
| 20260506152204 | 71 | 198 | 2.0 | 6.0 | 0.00 | 0.00 | 0.00 | 67 | 1007.7 |
| 20260506151704 | 71 | 172 | 2.0 | 5.0 | 0.00 | 0.00 | 0.00 | 66 | 1007.7 |
| 20260506151205 | 71 | 218 | 2.0 | 3.0 | 0.00 | 0.00 | 0.00 | 67 | 1007.9 |
| 20260506150205 | 71 | 190 | 4.0 | 13.0 | 0.00 | 0.00 | 0.00 | 65 | 1007.7 |
| 20260506142204 | 71 | 190 | 3.0 | 7.0 | 0.00 | 0.00 | 0.00 | 69 | 1007.8 |
| 20260506141704 | 70 | 159 | 2.0 | 3.0 | 0.00 | 0.00 | 0.00 | 70 | 1007.5 |
| 20260506140204 | 69 | 162 | 1.0 | 9.0 | 0.00 | 0.00 | 0.00 | 73 | 1007.5 |
| 20260506135704 | 69 | 197 | 3.0 | 5.0 | 0.00 | 0.00 | 0.00 | 73 | 1007.6 |
| 20260506134704 | 68 | 161 | 2.0 | 6.0 | 0.00 | 0.00 | 0.00 | 74 | 1007.7 |
| 20260506134204 | 67 | 175 | 1.0 | 3.0 | 0.00 | 0.00 | 0.00 | 75 | 1007.8 |
| 20260506133704 | 67 | 175 | 1.0 | 3.0 | 0.00 | 0.00 | 0.00 | 75 | 1007.8 |
| 20260506132704 | 67 | 249 | 2.0 | 8.0 | 0.00 | 0.00 | 0.00 | 76 | 1008.2 |
| 20260506131705 | 66 | 181 | 2.0 | 5.0 | 0.00 | 0.00 | 0.00 | 76 | 1008.4 |
| 20260506131204 | 66 | 187 | 2.0 | 5.0 | 0.00 | 0.00 | 0.00 | 76 | 1008.3 |
| 20260506130204 | 66 | 173 | 1.0 | 3.0 | 0.00 | 0.00 | 0.00 | 76 | 1008.2 |
| 20260506124704 | 66 | 182 | 3.0 | 8.0 | 0.00 | 0.00 | 0.00 | 76 | 1008.5 |
| 20260506123704 | 65 | 178 | 2.0 | 6.0 | 0.00 | 0.00 | 0.00 | 77 | 1008.2 |
| 20260506123204 | 65 | 176 | 1.0 | 3.0 | 0.00 | 0.00 | 0.00 | 77 | 1008.1 |
| 20260506122704 | 65 | 185 | 1.0 | 8.0 | 0.00 | 0.00 | 0.00 | 78 | 1008.2 |
| 20260506122204 | 65 | 174 | 1.0 | 3.0 | 0.00 | 0.00 | 0.00 | 77 | 1008.2 |
| 20260506121204 | 64 | 194 | 1.0 | 3.0 | 0.00 | 0.00 | 0.00 | 78 | 1008.6 |
| 20260506120204 | 64 | 205 | 1.0 | 6.0 | 0.00 | 0.00 | 0.00 | 80 | 1008.5 |
| 20260506113704 | 63 | 190 | 1.0 | 7.0 | 0.00 | 0.00 | 0.00 | 80 | 1008.7 |
| 20260506113204 | 63 | 202 | 1.0 | 8.0 | 0.00 | 0.00 | 0.00 | 80 | 1008.7 |
| 20260506112704 | 63 | 189 | 2.0 | 5.0 | 0.00 | 0.00 | 0.00 | 80 | 1008.8 |
| 20260506110704 | 62 | 156 | 1.0 | 3.0 | 0.00 | 0.00 | 0.00 | 82 | 1008.7 |
| 20260506110205 | 61 | 154 | 1.0 | 5.0 | 0.00 | 0.00 | 0.00 | 83 | 1008.7 |
| 20260506105203 | 61 | 182 | 1.0 | 3.0 | 0.00 | 0.00 | 0.00 | 83 | 1008.8 |
| 20260506104204 | 61 | 163 | 1.0 | 3.0 | 0.00 | 0.00 | 0.00 | 82 | 1008.9 |
| 20260506103204 | 61 | 174 | 1.0 | 7.0 | 0.00 | 0.00 | 0.00 | 82 | 1008.8 |
| 20260506102704 | 61 | 163 | 0.0 | 2.0 | 0.00 | 0.00 | 0.00 | 82 | 1008.7 |
| 20260506102205 | 61 | 164 | 1.0 | 3.0 | 0.00 | 0.00 | 0.00 | 83 | 1008.6 |
| 20260506101204 | 60 | 164 | 0.0 | 2.0 | 0.00 | 0.00 | 0.00 | 82 | 1008.8 |
| 20260506100204 | 60 | 164 | 0.0 | 2.0 | 0.00 | 0.00 | 0.00 | 82 | 1008.8 |
| 20260506095204 | 61 | 165 | 1.0 | 2.0 | 0.00 | 0.00 | 0.00 | 82 | 1008.7 |
| 20260506094704 | 61 | 161 | 0.0 | 2.0 | 0.00 | 0.00 | 0.00 | 81 | 1008.7 |
| 20260506093704 | 61 | 157 | 0.0 | 1.0 | 0.00 | 0.00 | 0.00 | 81 | 1008.5 |
| 20260506092704 | 61 | 182 | 0.0 | 2.0 | 0.00 | 0.00 | 0.00 | 81 | 1008.8 |
| 20260506090704 | 61 | 126 | 1.0 | 3.0 | 0.00 | 0.00 | 0.00 | 80 | 1008.6 |
| 20260506085204 | 61 | 171 | 0.0 | 3.0 | 0.00 | 0.00 | 0.00 | 79 | 1008.7 |
| 20260506083704 | 62 | 200 | 0.0 | 1.0 | 0.00 | 0.00 | 0.00 | 78 | 1008.7 |
| 20260506080704 | 62 | 192 | 1.0 | 3.0 | 0.00 | 0.00 | 0.00 | 77 | 1008.6 |
| 20260506073204 | 63 | 172 | 0.0 | 2.0 | 0.00 | 0.00 | 0.00 | 75 | 1008.5 |
| 20260506072704 | 63 | 172 | 1.0 | 3.0 | 0.00 | 0.00 | 0.00 | 74 | 1008.5 |
| 20260506071205 | 63 | 194 | 1.0 | 5.0 | 0.00 | 0.00 | 0.00 | 74 | 1008.2 |
| 20260506061204 | 63 | 192 | 0.0 | 3.0 | 0.00 | 0.00 | 0.00 | 71 | 1008.0 |
| 20260506060705 | 64 | 209 | 1.0 | 2.0 | 0.00 | 0.00 | 0.00 | 71 | 1008.0 |
| 20260506060204 | 64 | 169 | 0.0 | 2.0 | 0.00 | 0.00 | 0.00 | 71 | 1008.0 |
| 20260506044704 | 63 | 163 | 0.0 | 2.0 | 0.00 | 0.00 | 0.00 | 69 | 1008.7 |
| 20260506044203 | 64 | 163 | 0.0 | 2.0 | 0.00 | 0.00 | 0.00 | 69 | 1008.6 |
| 20260506043704 | 64 | 163 | 0.0 | 2.0 | 0.00 | 0.00 | 0.00 | 69 | 1008.7 |
| 20260506042704 | 64 | 163 | 0.0 | 1.0 | 0.00 | 0.00 | 0.00 | 68 | 1008.6 |
| 20260506042204 | 64 | 163 | 1.0 | 3.0 | 0.00 | 0.00 | 0.00 | 67 | 1008.6 |
| 20260506041703 | 65 | 180 | 1.0 | 2.0 | 0.00 | 0.00 | 0.00 | 67 | 1008.5 |
| 20260506041204 | 65 | 180 | 0.0 | 3.0 | 0.00 | 0.00 | 0.00 | 66 | 1008.6 |
| 20260506040704 | 65 | 189 | 2.0 | 7.0 | 0.00 | 0.00 | 0.00 | 66 | 1008.6 |
| 20260506035704 | 65 | 188 | 2.0 | 7.0 | 0.00 | 0.00 | 0.00 | 66 | 1008.6 |
| 20260506035204 | 65 | 193 | 1.0 | 3.0 | 0.00 | 0.00 | 0.00 | 65 | 1008.5 |
| 20260506034704 | 65 | 193 | 1.0 | 2.0 | 0.00 | 0.00 | 0.00 | 65 | 1008.5 |
| 20260506033704 | 66 | 157 | 2.0 | 6.0 | 0.00 | 0.00 | 0.00 | 64 | 1008.4 |
| 20260506031204 | 67 | 195 | 0.0 | 3.0 | 0.00 | 0.00 | 0.00 | 64 | 1008.5 |
| 20260506030703 | 67 | 194 | 0.0 | 7.0 | 0.00 | 0.00 | 0.00 | 64 | 1008.5 |
| 20260506025704 | 67 | 211 | 1.0 | 3.0 | 0.00 | 0.00 | 0.00 | 63 | 1008.4 |
| 20260506025204 | 67 | 212 | 1.0 | 3.0 | 0.00 | 0.00 | 0.00 | 63 | 1008.4 |
| 20260506023704 | 68 | 192 | 1.0 | 3.0 | 0.00 | 0.00 | 0.00 | 61 | 1008.3 |
| 20260506022704 | 68 | 183 | 1.0 | 3.0 | 0.00 | 0.00 | 0.00 | 60 | 1008.3 |
| 20260506020704 | 69 | 207 | 1.0 | 2.0 | 0.00 | 0.00 | 0.00 | 58 | 1008.4 |
| 20260506020203 | 70 | 208 | 0.0 | 3.0 | 0.00 | 0.00 | 0.00 | 58 | 1008.3 |
| 20260506015704 | 70 | 195 | 1.0 | 3.0 | 0.00 | 0.00 | 0.00 | 58 | 1008.3 |